{"data":{"norad_id":54132,"epoch":"2026-05-24T23:20:28.689792Z","epoch_age_seconds":81423,"freshness":"FRESH","line1":"1 54132U 22138V   26144.97255428  .00000023  00000+0  24334-4 0  9994","line2":"2 54132  87.9160 309.5924 0001905  96.5819 263.5530 13.19726193173763","mean_motion":13.19726193,"eccentricity":0.0001905,"inclination_deg":87.916,"raan_deg":309.5924,"arg_perigee_deg":96.5819,"mean_anomaly_deg":263.553,"bstar":2.4334e-5,"rev_number":17376,"period_min":109.11354246343,"perigee_km":1184.325070086,"apogee_km":1187.2069171265,"semimajor_km":7563.9029936062,"source":"CELESTRAK","updated_at":"2026-05-25T13:38:22.588439Z"}}